Change the Weather History Date:

Thursday, November 22, 2012

  Actual Average (KVCT) Record (KVCT)
Temperature  
Mean Temperature 62 °F 61 °F  
Max Temperature 77 °F 72 °F 88 °F (1917)
Min Temperature 46 °F 50 °F 32 °F (1945)
Degree Days  
Heating Degree Days 4 6  
Month to date heating degree days 83  
Since 1 July heating degree days 106  
Cooling Degree Days 0 2  
Month to date cooling degree days 68  
Year to date cooling degree days 3111  
Growing Degree Days 12 (Base 50)    
Moisture  
Dew Point 55 °F    
Average Humidity 75    
Maximum Humidity 100    
Minimum Humidity 44    
Precipitation  
Precipitation 0.00 in 0.10 in 1.56 in (2004)
Month to date precipitation 2.44  
Year to date precipitation 38.11  
Snow  
Snow 0.00 in - - ()
Month to date snowfall  
Since 1 July snowfall  
Since 1 September snowfall  
Snow Depth -    
Sea Level Pressure  
Sea Level Pressure 30.14 in    
Wind  
Wind Speed 5 mph (SSE)    
Max Wind Speed 15 mph    
Max Gust Speed 22 mph    
Visibility 7 miles    
Events Fog    
T = Trace of Precipitation, MM = Missing Value Source: NWS Daily Summary

Daily Weather History Graph

Daily Weather History Graph

Search for Another Location

Airport or City:

Trip Planner

Search our weather history database for the weather conditions in past years. The results will help you decide how hot, cold, wet, or windy it might be!

Date:

Astronomy

Nov. 22, 2012 Rise Set
Actual Time 6:55 AM CST 5:30 PM CST
Civil Twilight 6:30 AM CST 5:55 PM CST
Nautical Twilight 6:01 AM CST 6:24 PM CST
Astronomical Twilight 5:32 AM CST 6:52 PM CST
Moon 1:55 PM CST (11/22) 1:40 AM CST (11/22)
Length of Visible Light 11h 25m
Length of Day
10h 34m
Waxing Gibbous, 71% of the Moon is Illuminated
Nov 22
Waxing Gibbous
Nov 28
Full
Dec 6
Last Quarter
Dec 13
New
Dec 19
First Quarter

Hourly Weather History & Observations

Time (CST) Temp. Windchill Dew Point Humidity Pressure Visibility Wind Dir Wind Speed Gust Speed Precip Events Conditions
12:15 AM 55.4 °F - 53.6 °F 94% 30.17 in 0.2 mi South 3.5 mph - N/A Fog Fog
12:35 AM 53.6 °F - 51.8 °F 94% 30.17 in 1.0 mi Calm Calm - N/A   Mist
12:55 AM 53.6 °F - 51.8 °F 94% 30.16 in 0.2 mi South 3.5 mph - N/A Fog Fog
1:15 AM 51.8 °F - 51.8 °F 100% 30.16 in 1.8 mi Calm Calm - N/A   Scattered Clouds
1:35 AM 53.6 °F - 51.8 °F 94% 30.16 in 0.2 mi Calm Calm - N/A Fog Fog
1:55 AM 51.8 °F - 51.8 °F 100% 30.16 in 0.2 mi Calm Calm - N/A Fog Fog
2:15 AM 51.8 °F - 51.8 °F 100% 30.15 in 0.2 mi Calm Calm - N/A Fog Fog
2:35 AM 48.2 °F - 46.4 °F 93% 30.14 in 0.5 mi SE 3.5 mph - N/A Fog Fog
2:55 AM 50.0 °F - 50.0 °F 100% 30.14 in 0.2 mi SE 4.6 mph - N/A Fog Fog
3:15 AM 53.6 °F - 53.6 °F 100% 30.13 in 0.2 mi SE 4.6 mph - N/A Fog Fog
4:55 AM 50.0 °F - 48.2 °F 94% 30.14 in 0.2 mi Calm Calm - N/A Fog Fog
5:15 AM 48.2 °F - 46.4 °F 93% 30.14 in 0.2 mi Calm Calm - N/A Fog Fog
5:35 AM 46.4 °F 45.2 °F 46.4 °F 100% 30.14 in 0.2 mi East 3.5 mph - N/A Fog Fog
5:55 AM 46.4 °F - 46.4 °F 100% 30.15 in 0.5 mi Calm Calm - N/A Fog Fog
6:15 AM 46.4 °F - 46.4 °F 100% 30.16 in 0.2 mi Calm Calm - N/A Fog Fog
6:35 AM 46.4 °F - 46.4 °F 100% 30.16 in 0.5 mi Calm Calm - N/A Fog Fog
6:55 AM 46.4 °F 45.2 °F 46.4 °F 100% 30.16 in 1.5 mi ENE 3.5 mph - N/A   Scattered Clouds
7:15 AM 46.4 °F - 46.4 °F 100% 30.17 in 0.2 mi Calm Calm - N/A Fog Fog
7:55 AM 53.6 °F - 53.6 °F 100% 30.17 in 5.0 mi Calm Calm - N/A   Clear
8:15 AM 55.4 °F - 55.4 °F 100% 30.18 in 10.0 mi Calm Calm - N/A   Clear
8:35 AM 60.8 °F - 60.8 °F 100% 30.19 in 10.0 mi Calm Calm - N/A   Clear
8:55 AM 62.6 °F - 60.8 °F 94% 30.19 in 10.0 mi ESE 4.6 mph - N/A   Clear
9:15 AM 64.4 °F - 62.6 °F 94% 30.18 in 10.0 mi SE 6.9 mph - N/A   Clear
9:55 AM 71.6 °F - 59.0 °F 64% 30.18 in 10.0 mi SE 10.4 mph - N/A   Clear
10:15 AM 73.4 °F - 53.6 °F 50% 30.18 in 10.0 mi SSE 9.2 mph 19.6 mph N/A   Clear
10:35 AM 77.0 °F - 53.6 °F 44% 30.18 in 10.0 mi SSE 13.8 mph 19.6 mph N/A   Clear
10:55 AM 77.0 °F - 53.6 °F 44% 30.18 in 10.0 mi SSE 12.7 mph - N/A   Clear
11:15 AM 77.0 °F - 53.6 °F 44% 30.17 in 10.0 mi South 11.5 mph 19.6 mph N/A   Clear
11:55 AM 77.0 °F - 53.6 °F 44% 30.16 in 10.0 mi South 11.5 mph - N/A   Scattered Clouds
12:15 PM 77.0 °F - 53.6 °F 44% 30.14 in 10.0 mi South 15.0 mph 19.6 mph N/A   Scattered Clouds
12:35 PM 77.0 °F - 53.6 °F 44% 30.14 in 10.0 mi SSW 13.8 mph 18.4 mph N/A   Scattered Clouds
12:55 PM 77.0 °F - 55.4 °F 47% 30.13 in 10.0 mi South 11.5 mph 18.4 mph N/A   Mostly Cloudy
1:15 PM 77.0 °F - 55.4 °F 47% 30.12 in 10.0 mi South 11.5 mph - N/A   Mostly Cloudy
1:35 PM 77.0 °F - 55.4 °F 47% 30.12 in 10.0 mi South 13.8 mph 21.9 mph N/A   Mostly Cloudy
1:55 PM 77.0 °F - 53.6 °F 44% 30.11 in 10.0 mi South 12.7 mph 18.4 mph N/A   Mostly Cloudy
2:15 PM 75.2 °F - 53.6 °F 47% 30.11 in 10.0 mi South 10.4 mph 16.1 mph N/A   Scattered Clouds
2:35 PM 75.2 °F - 55.4 °F 50% 30.10 in 10.0 mi South 10.4 mph - N/A   Clear
2:55 PM 77.0 °F - 55.4 °F 47% 30.10 in 10.0 mi SSE 10.4 mph - N/A   Scattered Clouds
3:15 PM 77.0 °F - 55.4 °F 47% 30.10 in 10.0 mi South 10.4 mph 18.4 mph N/A   Scattered Clouds
3:35 PM 77.0 °F - 55.4 °F 47% 30.10 in 10.0 mi South 13.8 mph 17.3 mph N/A   Scattered Clouds
3:55 PM 75.2 °F - 55.4 °F 50% 30.09 in 10.0 mi South 11.5 mph - N/A   Scattered Clouds
4:15 PM 73.4 °F - 55.4 °F 53% 30.10 in 10.0 mi South 9.2 mph - N/A   Scattered Clouds
4:35 PM 73.4 °F - 55.4 °F 53% 30.10 in 10.0 mi SSE 11.5 mph 17.3 mph N/A   Scattered Clouds
4:55 PM 71.6 °F - 55.4 °F 57% 30.10 in 10.0 mi South 10.4 mph - N/A   Scattered Clouds
5:15 PM 71.6 °F - 55.4 °F 57% 30.10 in 10.0 mi South 6.9 mph - N/A   Clear
5:35 PM 69.8 °F - 55.4 °F 60% 30.10 in 10.0 mi SSE 6.9 mph - N/A   Clear
5:55 PM 68.0 °F - 55.4 °F 64% 30.11 in 10.0 mi SE 5.8 mph - N/A   Clear
6:15 PM 68.0 °F - 55.4 °F 64% 30.11 in 10.0 mi SE 5.8 mph - N/A   Clear
6:35 PM 66.2 °F - 57.2 °F 73% 30.11 in 10.0 mi SE 5.8 mph - N/A   Clear
6:55 PM 66.2 °F - 59.0 °F 78% 30.12 in 10.0 mi SE 6.9 mph - N/A   Clear
8:15 PM 66.2 °F - 59.0 °F 78% 30.13 in 10.0 mi SSE 8.1 mph - N/A   Clear
8:35 PM 66.2 °F - 59.0 °F 78% 30.13 in 10.0 mi SSE 8.1 mph - N/A   Clear
8:55 PM 66.2 °F - 59.0 °F 78% 30.13 in 10.0 mi SE 8.1 mph - N/A   Clear
9:15 PM 66.2 °F - 60.8 °F 83% 30.13 in 10.0 mi SE 8.1 mph - N/A   Clear
9:35 PM 66.2 °F - 60.8 °F 83% 30.13 in 10.0 mi SSE 6.9 mph - N/A   Clear
9:55 PM 64.4 °F - 60.8 °F 88% 30.13 in 10.0 mi SE 8.1 mph - N/A   Clear
10:15 PM 64.4 °F - 60.8 °F 88% 30.12 in 10.0 mi SE 8.1 mph - N/A   Clear
10:35 PM 66.2 °F - 60.8 °F 83% 30.13 in 10.0 mi SE 6.9 mph - N/A   Clear
10:55 PM 64.4 °F - 60.8 °F 88% 30.13 in 10.0 mi SE 5.8 mph - N/A   Clear
11:15 PM 64.4 °F - 60.8 °F 88% 30.13 in 10.0 mi SSE 5.8 mph - N/A   Clear
11:35 PM 64.4 °F - 60.8 °F 88% 30.13 in 10.0 mi SSE 4.6 mph - N/A   Clear
11:55 PM 64.4 °F - 60.8 °F 88% 30.13 in 10.0 mi Calm Calm - N/A   Clear